Regional Weather Roundup
Issued by NWS

Home | Current Version | Previous Version | Graphics & Text | Print | Product List | Glossary On
Versions: 1 2 3 4 5 6 7 8 9 10 11 12 13 14 15 16 17 18 19 20 21 22 23 24 25 26 27 28 29 30 31 32 33 34 35 36 37 38 39 40 41 42 43 44 45 46 47 48 49 50
998
ASUS43 KBIS 191802
RWRND

NORTH DAKOTA REGIONAL WEATHER ROUNDUP
NATIONAL WEATHER SERVICE BISMARCK ND
1200 PM CST SUN FEB 19 2017

NOTE: "FAIR" INDICATES FEW OR NO CLOUDS BELOW 12,000 FEET WITH NO
SIGNIFICANT WEATHER AND/OR OBSTRUCTIONS TO VISIBILITY.


NDZ001>003-009>011-017-191900-
NORTHWEST NORTH DAKOTA

CITY           SKY/WX    TMP DP  RH WIND       PRES   REMARKS
WILLISTON      CLOUDY    35  32  88 E9        29.52S
6HR MIN TEMP:  32; 6HR MAX TEMP:  35;

MINOT          CLOUDY    37  34  89 E13       29.55F
$$

NDZ018>021-031>035-040>046-191900-
SOUTHWEST NORTH DAKOTA

CITY           SKY/WX    TMP DP  RH WIND       PRES   REMARKS
BISMARCK       FAIR      40  34  79 E6        29.54F
6HR MIN TEMP:  34; 6HR MAX TEMP:  40;

DICKINSON      FAIR      45  35  68 SE6       29.46F
GARRISON         N/A     40  34  79 E9        29.52F
6HR MIN TEMP:  32; 6HR MAX TEMP:  40;

HETTINGER ARPT CLOUDY    48  36  63 E3        29.49F
$$

NDZ004>008-012>016-024-026-027-054-191900-
NORTHEAST NORTH DAKOTA

CITY           SKY/WX    TMP DP  RH WIND       PRES   REMARKS
GRAND FORKS    CLOUDY    40  32  73 SE13      29.73F
GRND FRKS AFB  CLOUDY    40  36  86 SE8       29.72F
DEVILS LAKE    FAIR      38  34  85 SE14      29.65F
$$

NDZ022-023-025-028>030-036>039-047>053-191900-
SOUTHEAST NORTH DAKOTA

CITY           SKY/WX    TMP DP  RH WIND       PRES   REMARKS
FARGO          CLOUDY    49  40  71 SE20G29   29.71F
6HR MIN TEMP:  39; 6HR MAX TEMP:  49;

JAMESTOWN      FAIR      42  36  79 SE17      29.61F
$$





USA.gov is the U.S. government's official web portal to all federal, state and local government web resources and services.